Radiation Dose at Monitoring Post of Fukushima Daini Nuclear Power Station
Date,Time,MP-1(microSv/h),MP-2(microSv/h),MP-3(microSv/h),MP-4(microSv/h),MP-5(microSv/h),MP-6(microSv/h),MP-7(microSv/h),Wind Direction,Wind Velocity(m/s),Rain
2016/05/17,00:00,0.449,0.261,0.473,0.415,0.394,0.211,0.184,south-southwest,14.3,No
2016/05/17,00:10,0.451,0.259,0.469,0.419,0.389,0.210,0.182,south-southwest,14.5,No
2016/05/17,00:20,0.448,0.261,0.474,0.416,0.394,0.209,0.184,south-southwest,13.5,No
2016/05/17,00:30,0.452,0.259,0.471,0.419,0.392,0.211,0.183,south-southwest,12.4,No
2016/05/17,00:40,0.445,0.262,0.474,0.418,0.395,0.210,0.183,south-southwest,12.8,No
2016/05/17,00:50,0.451,0.260,0.473,0.417,0.391,0.211,0.183,south-southwest,11.7,No
2016/05/17,01:00,0.446,0.260,0.471,0.417,0.395,0.210,0.184,south,11.3,No
2016/05/17,01:10,0.451,0.261,0.473,0.417,0.390,0.212,0.183,south-southwest,11.1,No
2016/05/17,01:20,0.447,0.261,0.473,0.419,0.394,0.210,0.184,south-southwest,10.1,No
2016/05/17,01:30,0.450,0.261,0.473,0.416,0.392,0.211,0.183,south-southwest,11.5,No
2016/05/17,01:40,0.449,0.261,0.470,0.417,0.393,0.212,0.183,south-southwest,11.6,No
2016/05/17,01:50,0.449,0.261,0.474,0.415,0.391,0.211,0.183,south-southwest,10.3,No
2016/05/17,02:00,0.450,0.260,0.470,0.419,0.391,0.210,0.185,south-southwest,9.6,No
2016/05/17,02:10,0.448,0.260,0.473,0.414,0.393,0.209,0.183,south-southwest,10.5,No
2016/05/17,02:20,0.450,0.260,0.472,0.418,0.390,0.211,0.184,south-southwest,9.8,No
2016/05/17,02:30,0.446,0.261,0.470,0.416,0.394,0.210,0.182,south-southwest,8.9,No
2016/05/17,02:40,0.450,0.260,0.474,0.420,0.390,0.211,0.184,south-southwest,9.1,No
2016/05/17,02:50,0.447,0.262,0.470,0.416,0.395,0.210,0.183,south-southwest,7.9,No
2016/05/17,03:00,0.451,0.259,0.475,0.416,0.390,0.211,0.184,south-southwest,7.4,No
2016/05/17,03:10,0.449,0.261,0.468,0.421,0.394,0.211,0.183,south-southwest,8.5,No
2016/05/17,03:20,0.446,0.260,0.473,0.415,0.390,0.209,0.185,south-southwest,8.1,No
2016/05/17,03:30,0.450,0.260,0.471,0.420,0.394,0.211,0.184,south-southwest,8.6,No
2016/05/17,03:40,0.447,0.262,0.470,0.413,0.392,0.210,0.185,south-southwest,7.7,No
2016/05/17,03:50,0.450,0.261,0.474,0.419,0.391,0.211,0.183,south-southwest,7.8,No
2016/05/17,04:00,0.446,0.260,0.469,0.416,0.393,0.210,0.183,south-southwest,7.0,Yes
2016/05/17,04:10,0.451,0.261,0.477,0.417,0.391,0.210,0.183,south-southwest,6.4,Yes
2016/05/17,04:20,0.448,0.262,0.470,0.418,0.394,0.210,0.184,south-southwest,6.5,Yes
2016/05/17,04:30,0.449,0.258,0.473,0.415,0.389,0.212,0.182,south-southwest,6.9,Yes
2016/05/17,04:40,0.449,0.261,0.472,0.418,0.394,0.211,0.183,south-southwest,7.0,Yes
2016/05/17,04:50,0.450,0.261,0.472,0.415,0.391,0.211,0.184,south,5.3,Yes
2016/05/17,05:00,-,-,-,-,-,-,-,-,-,-
2016/05/17,05:10,0.446,0.259,0.469,0.416,0.392,0.210,0.184,south-southwest,6.4,Yes
2016/05/17,05:20,0.449,0.261,0.474,0.419,0.395,0.210,0.184,south-southwest,6.4,No
2016/05/17,05:30,0.447,0.260,0.471,0.414,0.392,0.210,0.184,south-southwest,8.1,Yes
2016/05/17,05:40,0.450,0.261,0.474,0.419,0.393,0.211,0.183,south-southwest,8.3,Yes
2016/05/17,05:50,0.446,0.257,0.468,0.413,0.391,0.209,0.183,south-southwest,7.9,Yes
2016/05/17,06:00,0.446,0.260,0.471,0.416,0.392,0.209,0.181,south-southwest,7.2,Yes
2016/05/17,06:10,0.444,0.258,0.467,0.411,0.387,0.209,0.182,south-southwest,6.2,Yes
2016/05/17,06:20,0.443,0.259,0.467,0.412,0.387,0.209,0.181,south-southwest,4.8,Yes
2016/05/17,06:30,0.443,0.257,0.463,0.409,0.387,0.207,0.181,south-southwest,6.1,Yes
2016/05/17,06:40,0.442,0.257,0.465,0.412,0.386,0.209,0.181,south-southwest,6.4,Yes
2016/05/17,06:50,0.442,0.256,0.461,0.407,0.386,0.207,0.180,south-southwest,5.6,Yes
2016/05/17,07:00,0.441,0.257,0.463,0.409,0.384,0.207,0.180,south-southwest,5.7,Yes
2016/05/17,07:10,0.439,0.255,0.457,0.404,0.384,0.207,0.180,south-southwest,6.3,Yes
2016/05/17,07:20,0.440,0.257,0.460,0.405,0.382,0.206,0.179,south-southwest,6.5,Yes
2016/05/17,07:30,0.437,0.254,0.455,0.402,0.385,0.206,0.178,south-southwest,5.6,Yes
2016/05/17,07:40,0.439,0.255,0.456,0.405,0.382,0.205,0.178,south-southwest,4.4,Yes
2016/05/17,07:50,0.435,0.252,0.455,0.403,0.387,0.206,0.177,south-southwest,2.1,Yes
2016/05/17,08:00,0.438,0.256,0.456,0.403,0.383,0.205,0.178,-,CALM,Yes
2016/05/17,08:10,0.436,0.253,0.454,0.403,0.387,0.207,0.178,north-northeast,0.9,Yes
2016/05/17,08:20,0.436,0.254,0.455,0.403,0.383,0.205,0.177,north-northeast,1.0,Yes
2016/05/17,08:30,0.435,0.254,0.453,0.402,0.386,0.207,0.178,north,3.3,Yes
2016/05/17,08:40,0.435,0.255,0.456,0.402,0.383,0.205,0.178,north,3.4,Yes
2016/05/17,08:50,0.433,0.253,0.452,0.400,0.385,0.206,0.177,north,3.6,Yes
2016/05/17,09:00,0.432,0.255,0.449,0.398,0.380,0.206,0.176,north-northwest,4.8,Yes
2016/05/17,09:10,0.432,0.253,0.448,0.396,0.385,0.206,0.177,north,5.7,Yes
2016/05/17,09:20,0.433,0.253,0.447,0.397,0.380,0.205,0.177,northeast,3.6,Yes
2016/05/17,09:30,0.431,0.255,0.446,0.396,0.383,0.206,0.177,north-northwest,5.6,Yes
2016/05/17,09:40,0.432,0.254,0.449,0.398,0.385,0.205,0.179,north,6.0,Yes
2016/05/17,09:50,0.433,0.254,0.446,0.396,0.385,0.206,0.177,north,6.7,Yes
2016/05/17,10:00,0.430,0.250,0.448,0.397,0.386,0.205,0.178,north,5.8,Yes
2016/05/17,10:10,0.432,-,0.445,0.395,0.383,0.206,0.177,north-northwest,7.2,Yes
2016/05/17,10:20,0.427,-,0.447,0.396,0.384,0.205,0.177,north,6.9,Yes
2016/05/17,10:30,0.430,-,0.442,0.392,0.381,0.206,0.177,north-northwest,3.3,Yes
2016/05/17,10:40,0.427,-,0.446,0.395,0.386,0.206,0.177,north,5.6,Yes
2016/05/17,10:50,0.431,-,0.445,0.391,0.381,0.205,0.178,north,6.7,Yes
2016/05/17,11:00,0.427,-,0.447,0.395,0.385,0.205,0.177,north,6.7,Yes
2016/05/17,11:10,0.430,-,0.443,0.392,0.382,0.205,0.178,north-northeast,8.2,Yes
2016/05/17,11:20,0.428,-,0.446,0.395,0.385,0.206,0.178,north,5.9,Yes
2016/05/17,11:30,0.428,-,0.445,0.392,0.384,0.206,0.178,north-northeast,8.4,Yes
2016/05/17,11:40,0.428,-,0.446,0.395,0.384,0.206,0.179,north,9.5,Yes
2016/05/17,11:50,0.428,-,0.445,0.393,0.385,0.205,0.178,north,9.5,Yes
2016/05/17,12:00,0.427,-,0.446,0.395,0.384,0.206,0.179,north,8.6,Yes
2016/05/17,12:10,0.427,-,0.447,0.393,0.388,0.205,0.178,north,8.3,Yes
2016/05/17,12:20,0.428,-,0.445,0.395,0.383,0.205,0.178,north,9.2,Yes
2016/05/17,12:30,0.425,-,0.447,0.393,0.385,0.204,0.178,north,9.2,Yes
2016/05/17,12:40,0.429,-,0.444,0.392,0.384,0.205,0.178,north,9.5,Yes
2016/05/17,12:50,0.425,-,0.447,0.396,0.387,0.205,0.177,north,9.4,Yes
2016/05/17,13:00,0.429,-,0.445,0.394,0.385,0.206,0.178,north,8.4,Yes
2016/05/17,13:10,0.426,-,0.447,0.396,0.386,0.205,0.178,north,10.0,Yes
2016/05/17,13:20,0.428,-,0.443,0.394,0.386,0.204,0.177,north,8.5,Yes
2016/05/17,13:30,0.425,-,0.449,0.395,0.382,0.204,0.178,north,7.0,Yes
2016/05/17,13:40,0.430,-,0.445,0.395,0.384,0.205,0.178,north,7.5,Yes
2016/05/17,13:50,0.427,-,0.448,0.395,0.384,0.204,0.177,north,6.7,Yes
2016/05/17,14:00,0.428,-,0.444,0.394,0.388,0.205,0.178,north,7.8,Yes
2016/05/17,14:10,0.427,-,0.446,0.396,0.382,0.203,0.176,north,6.7,Yes
2016/05/17,14:20,0.426,-,0.447,0.392,0.385,0.205,0.178,north,7.8,Yes
2016/05/17,14:30,0.426,-,0.446,0.396,0.383,0.205,0.177,north,8.2,Yes
2016/05/17,14:40,0.425,-,0.446,0.392,0.386,0.203,0.177,north,10.0,Yes
2016/05/17,14:50,0.427,-,0.446,0.396,0.383,0.204,0.177,north,10.4,Yes
2016/05/17,15:00,0.424,-,0.444,0.394,0.385,0.203,0.175,north,10.7,Yes
2016/05/17,15:10,0.428,-,0.446,0.395,0.385,0.203,0.176,north,9.4,Yes
2016/05/17,15:20,0.425,-,0.446,0.393,0.381,0.204,0.176,north,10.6,Yes
2016/05/17,15:30,0.427,-,0.444,0.393,0.385,0.204,0.176,north,8.6,Yes
2016/05/17,15:40,0.423,0.251,0.445,0.394,0.382,0.204,0.177,north,9.8,Yes
2016/05/17,15:50,0.427,0.251,0.443,0.393,0.386,0.204,0.177,north,10.1,Yes
2016/05/17,16:00,0.424,0.251,0.445,0.393,0.382,0.204,0.176,north-northeast,9.4,Yes
2016/05/17,16:10,0.426,0.251,0.443,0.391,0.385,0.204,0.176,north,10.2,Yes
2016/05/17,16:20,0.425,0.250,0.447,0.395,0.384,0.204,0.175,north,9.8,Yes
2016/05/17,16:30,0.424,0.252,0.443,0.392,0.383,0.205,0.176,north-northeast,10.1,Yes
2016/05/17,16:40,0.429,0.251,0.446,0.397,0.386,0.205,0.178,north,9.1,Yes
2016/05/17,16:50,0.426,0.253,0.444,0.393,0.384,0.205,0.177,north,8.9,Yes
2016/05/17,17:00,0.429,0.251,0.446,0.396,0.386,0.205,0.176,north,7.5,Yes
2016/05/17,17:10,0.425,0.252,0.444,0.393,0.383,0.204,0.177,north,7.9,Yes
2016/05/17,17:20,0.427,0.251,0.445,0.395,0.386,0.205,0.177,north,9.4,Yes
2016/05/17,17:30,0.426,0.250,0.445,0.393,0.383,0.203,0.176,north,8.5,Yes
2016/05/17,17:40,0.425,0.249,0.443,0.394,0.382,0.204,0.176,north,7.1,Yes
2016/05/17,17:50,0.425,0.248,0.446,0.394,0.384,0.201,0.175,north,8.2,No
2016/05/17,18:00,0.425,0.250,0.442,0.394,0.380,0.202,0.173,north,8.6,No
2016/05/17,18:10,0.425,0.247,0.445,0.393,0.384,0.200,0.173,north,7.5,No
2016/05/17,18:20,0.423,0.248,0.440,0.392,0.381,0.200,0.173,north,7.3,No
2016/05/17,18:30,0.425,0.246,0.445,0.394,0.384,0.199,0.174,north,5.3,No
2016/05/17,18:40,0.422,0.248,0.441,0.391,0.380,0.200,0.173,north,5.5,No
2016/05/17,18:50,0.425,0.246,0.445,0.393,0.381,0.198,0.173,north,6.8,No
2016/05/17,19:00,0.421,0.248,0.442,0.391,0.380,0.200,0.171,north,6.8,No
2016/05/17,19:10,0.426,0.246,0.445,0.394,0.382,0.200,0.171,north,7.3,No
2016/05/17,19:20,0.423,0.247,0.443,0.389,0.381,0.199,0.172,north,7.4,No
2016/05/17,19:30,0.427,0.248,0.446,0.395,0.379,0.199,0.172,north,8.7,No
2016/05/17,19:40,0.424,0.245,0.442,0.390,0.383,0.199,0.172,north,7.7,No
2016/05/17,19:50,0.425,0.247,0.445,0.395,0.379,0.200,0.170,north,6.2,No
2016/05/17,20:00,0.423,0.246,0.441,0.391,0.382,0.199,0.171,north,6.2,No
2016/05/17,20:10,0.426,0.249,0.446,0.394,0.379,0.199,0.172,north,7.1,No
2016/05/17,20:20,0.424,0.246,0.442,0.391,0.382,0.199,0.171,north,7.9,No
2016/05/17,20:30,0.426,0.247,0.445,0.395,0.379,0.198,0.171,north,8.1,No
2016/05/17,20:40,0.427,0.245,0.443,0.392,0.383,0.199,0.171,north,8.1,No
2016/05/17,20:50,0.425,0.248,0.446,0.394,0.379,0.200,0.171,north,7.7,No
2016/05/17,21:00,0.426,0.246,0.445,0.391,0.382,0.199,0.170,north,6.6,No
2016/05/17,21:10,0.421,0.246,0.446,0.395,0.379,0.199,0.171,north,5.9,No
2016/05/17,21:20,0.426,0.249,0.444,0.393,0.380,0.200,0.172,north,4.6,No
2016/05/17,21:30,0.425,0.246,0.446,0.396,0.381,0.199,0.171,north,4.4,No
2016/05/17,21:40,0.428,0.247,0.445,0.393,0.381,0.199,0.171,north,5.2,No
2016/05/17,21:50,0.424,0.246,0.447,0.395,0.383,0.200,0.171,north,3.9,No
2016/05/17,22:00,0.428,0.247,0.445,0.392,0.379,0.198,0.171,north,3.2,No
2016/05/17,22:10,0.425,0.246,0.444,0.397,0.384,0.200,0.172,north,5.3,No
2016/05/17,22:20,0.429,0.248,0.447,0.394,0.378,0.201,0.171,north,4.7,No
2016/05/17,22:30,0.425,0.247,0.444,0.393,0.383,0.199,0.171,north,5.3,No
2016/05/17,22:40,0.428,0.248,0.445,0.395,0.380,0.199,0.171,north,5.0,No
2016/05/17,22:50,0.426,0.247,0.443,0.392,0.381,0.200,0.172,north,5.8,No
2016/05/17,23:00,0.426,0.247,0.449,0.395,0.383,0.200,0.171,north-northwest,6.4,No
2016/05/17,23:10,0.427,0.248,0.444,0.395,0.380,0.201,0.172,north-northwest,5.8,No
2016/05/17,23:20,0.425,0.246,0.448,0.396,0.383,0.200,0.171,north-northwest,6.4,No
2016/05/17,23:30,0.428,0.248,0.443,0.394,0.380,0.200,0.171,north-northwest,6.1,No
2016/05/17,23:40,0.424,0.248,0.448,0.396,0.382,0.201,0.170,north-northwest,5.9,No
2016/05/17,23:50,0.428,0.247,0.446,0.394,0.380,0.200,0.172,north-northwest,6.4,No
